Flight Track Log - Related Links

Times and Time Zones

All times are in EST time to prevent confusion due to time zone crossing. See the N449ND flight status page for this flight to view local times or setup timezone preferences in your user account.

Time Position Orientation Groundspeed Altitude Reporting Facility
EST Latitude Longitude Course Direction KTS MPH feet Rate Location/Type
Thu 07:01:26 PM 27.4978 -80.3781 223° Southwest 90 104 400  Level Miami Center
Thu 07:02:00 PM 27.4271 -80.4473 223° Southwest  Level Estimated
Thu 07:02:26 PM 27.4950 -80.3992 262° West 84 97 1,100  Level Miami Center
Thu 07:03:00 PM 27.4130 -80.4622 223° Southwest  Level Estimated
Thu 07:03:26 PM 27.4947 -80.4178 269° West 79 91 1,700  Level Miami Center
Thu 07:04:00 PM 27.3989 -80.4771 223° Southwest  Level Estimated
Thu 07:04:26 PM 27.4942 -80.4364 268° West 71 82 2,300  Level Miami Center
Thu 07:05:00 PM 27.3848 -80.4920 223° Southwest  Level Estimated
Thu 07:05:26 PM 27.4917 -80.4575 262° West 64 74 3,000  Level Miami Center
Thu 07:06:00 PM 27.3707 -80.5069 223° Southwest  Level Estimated
Thu 07:06:26 PM 27.4786 -80.4733 227° Southwest 69 79 3,500  Level Miami Center
Thu 07:07:26 PM 27.4594 -80.4892 216° Southwest 86 99 3,900 300 Climbing Miami Center
Thu 07:08:26 PM 27.4444 -80.5097 231° Southwest 96 110 4,100 50 Climbing Miami Center
Thu 07:09:26 PM 27.4250 -80.5325 226° Southwest 96 110 4,000 -50 Descending Miami Center
Thu 07:10:26 PM 27.4033 -80.5575 226° Southwest 101 116 4,000  Level Miami Center
Thu 07:11:26 PM 27.3819 -80.5803 223° Southwest 101 116 4,000 50 Level Miami Center
Thu 07:12:26 PM 27.3647 -80.6008 227° Southwest 101 116 4,100  Climbing Miami Center
Thu 07:13:26 PM 27.3475 -80.6236 230° Southwest 106 122 4,000 -50 Descending Miami Center
Thu 07:14:26 PM 27.3322 -80.6464 233° Southwest 106 122 4,000  Level Miami Center
Thu 07:15:26 PM 27.3211 -80.6764 247° West 96 110 4,000  Level Miami Center
Thu 07:16:26 PM 27.3119 -80.7042 250° West 91 105 4,000 50 Level Miami Center
Thu 07:17:26 PM 27.3050 -80.7319 254° West 91 105 4,100  Climbing Miami Center
Thu 07:18:26 PM 27.2939 -80.7575 244° Southwest 91 105 4,000 -50 Descending Miami Center
Thu 07:19:26 PM 27.2869 -80.7828 253° West 91 105 4,000  Level Miami Center
Thu 07:20:26 PM 27.2778 -80.8153 252° West 91 105 4,000  Level Miami Center
Thu 07:21:26 PM 27.2686 -80.8406 248° West 91 105 4,000 50 Level Miami Center
Thu 07:22:26 PM 27.2617 -80.8683 254° West 91 105 4,100  Climbing Miami Center
Thu 07:23:26 PM 27.2525 -80.8939 248° West 91 105 4,000 -50 Descending Miami Center
Thu 07:24:26 PM 27.2456 -80.9192 253° West 91 105 4,000  Level Miami Center
Thu 07:25:26 PM 27.2322 -80.9492 243° Southwest 91 105 4,000  Level Miami Center
Thu 07:26:26 PM 27.2169 -80.9742 236° Southwest 96 110 4,000  Level Miami Center
Thu 07:27:26 PM 27.2036 -80.9994 239° Southwest 96 110 4,000  Level Miami Center
Thu 07:28:26 PM 27.1864 -81.0222 230° Southwest 96 110 4,000  Level Miami Center
Thu 07:29:26 PM 27.1586 -81.0375 206° Southwest 107 123 4,000  Level Miami Center
Thu 07:30:26 PM 27.1331 -81.0575 215° Southwest 112 129 4,000  Level Miami Center
Thu 07:31:26 PM 27.1156 -81.0803 229° Southwest 102 117 4,000  Level Miami Center
Thu 07:32:26 PM 27.0964 -81.1006 223° Southwest 102 117 4,000  Level Miami Center
Thu 07:33:26 PM 27.0728 -81.1231 220° Southwest 102 117 4,000  Level Miami Center
Thu 07:34:26 PM 27.0511 -81.1503 228° Southwest 108 124 4,000  Level Miami Center
Thu 07:35:26 PM 27.0294 -81.1728 223° Southwest 114 131 4,000  Level Miami Center
Thu 07:36:26 PM 27.0100 -81.1953 226° Southwest 108 124 4,000  Level Miami Center
Thu 07:37:26 PM 26.9883 -81.2178 223° Southwest 108 124 4,000  Level Miami Center
Thu 07:38:26 PM 26.9669 -81.2403 223° Southwest 113 130 4,000  Level Miami Center
Thu 07:39:26 PM 26.9475 -81.2628 226° Southwest 113 130 4,000  Level Miami Center
Thu 07:40:26 PM 26.9281 -81.2856 226° Southwest 113 130 4,000  Level Miami Center
Thu 07:41:26 PM 26.9042 -81.3078 220° Southwest 113 130 4,000  Level Miami Center
Thu 07:42:26 PM 26.8869 -81.3306 230° Southwest 113 130 4,000  Level Miami Center
Thu 07:43:26 PM 26.8653 -81.3528 222° Southwest 113 130 4,000  Level Miami Center
Thu 07:44:26 PM 26.8458 -81.3708 220° Southwest 113 130 4,000  Level Miami Center
Thu 07:46:00 PM 26.8190 -81.3866 208° Southwest  Level Estimated
Thu 07:53:00 PM 26.6992 -81.4569 208° Southwest  Level Estimated
Thu 07:54:00 PM 26.6821 -81.4669 208° Southwest  Level Estimated
Thu 07:55:00 PM 26.6649 -81.4770 208° Southwest  Level Estimated
Thu 07:56:00 PM 26.6478 -81.4870 208° Southwest  Level Estimated
Thu 07:57:00 PM 26.6307 -81.4970 208° Southwest  Level Estimated
Thu 07:58:00 PM 26.6136 -81.5070 208° Southwest  Level Estimated
Thu 07:59:00 PM 26.5964 -81.5171 208° Southwest  Level Estimated
Thu 08:00:00 PM 26.5793 -81.5271 208° Southwest  Level Estimated
Thu 08:01:00 PM 26.5622 -81.5371 208° Southwest  Level Estimated
Thu 08:02:00 PM 26.5450 -81.5471 208° Southwest  Level Estimated
Thu 08:03:00 PM 26.5279 -81.5571 208° Southwest  Level Estimated
Thu 08:04:00 PM 26.5108 -81.5671 208° Southwest  Level Estimated
Thu 08:05:00 PM 26.4937 -81.5771 208° Southwest  Level Estimated
Thu 08:06:00 PM 26.4765 -81.5871 208° Southwest  Level Estimated
Thu 08:07:00 PM 26.4594 -81.5971 208° Southwest  Level Estimated
Thu 08:08:00 PM 26.4423 -81.6071 208° Southwest  Level Estimated
Thu 08:09:00 PM 26.4251 -81.6171 208° Southwest  Level Estimated
Thu 08:10:00 PM 26.4080 -81.6271 208° Southwest  Level Estimated
Thu 08:11:00 PM 26.3909 -81.6371 208° Southwest  Level Estimated
Thu 08:12:00 PM 26.3737 -81.6470 208° Southwest  Level Estimated
Thu 08:13:00 PM 26.3566 -81.6570 208° Southwest  Level Estimated
Thu 08:14:00 PM 26.3395 -81.6670 208° Southwest  Level Estimated
Thu 08:15:00 PM 26.3223 -81.6770 208° Southwest  Level Estimated
Thu 08:16:00 PM 26.3052 -81.6869 208° Southwest  Level Estimated
Thu 08:17:00 PM 26.2880 -81.6969 208° Southwest  Level Estimated
Thu 08:18:00 PM 26.2709 -81.7069 208° Southwest  Level Estimated
Thu 08:19:00 PM 26.2538 -81.7168 208° Southwest  Level Estimated
Thu 08:20:00 PM 26.2366 -81.7268 208° Southwest  Level Estimated
Thu 08:21:00 PM 26.2195 -81.7367 208° Southwest  Level Estimated
Thu 08:22:00 PM 26.2023 -81.7467 208° Southwest  Level Estimated
Thu 08:23:00 PM 26.1852 -81.7566 208° Southwest  Level Estimated
Thu 08:24:00 PM 26.1681 -81.7666 208° Southwest  Level Estimated
Thu 08:25:00 PM 26.1524 -81.7756 208° Southwest  Level Estimated
Thu 08:26:00 PM 26.1524 -81.7756 36° Northeast  Level Estimated
Thu 08:27:00 PM 26.1524 -81.7756 36° Northeast  Level Estimated
Thu 08:28:00 PM 26.1524 -81.7756 36° Northeast  Level Estimated
Thu 08:29:00 PM 26.1524 -81.7756 36° Northeast  Level Estimated
Thu 08:30:00 PM 26.1524 -81.7756 36° Northeast  Level Estimated
Thu 08:31:00 PM 26.1524 -81.7756 36° Northeast  Level Estimated
Thu 08:32:00 PM 26.1524 -81.7756 36° Northeast  Level Estimated
Thu 08:33:00 PM 26.1524 -81.7756 36° Northeast  Level Estimated
Thu 08:34:00 PM 26.1524 -81.7756 36° Northeast  Level Estimated

Login

Don't have an account? Register now (free) for customized features, flight alerts, and more!